Location: Paderno d�Adda
(45.6667°N, 9.4333°E)
Time: 00:23:03
(UTC+00:00)

CENTAUR R/B - Pass Details

Date: 19 September 2020
Orbit: 755 x 1433 km, 63.4° (Epoch: 02 October)

Event Time Altitude Azimuth Distance (km) Brightness Sun altitude
Rises 18:35:54 0° 320° (NW) 4,062 6.7 -13.1°
Reaches altitude 10° 18:38:40 10° 327° (NNW) 3,188 5.9 -13.5°
Maximum altitude 18:46:15 48° 40° (NE) 1,705 3.6 -14.8°
Enters shadow 18:51:58 21° 105° (ESE) 2,734 4.2 -15.7°
